Location: Krakow
(50.0830°N, 19.9170°E)
Time: 04:06:19
(UTC+02:00)

Tiros 1 - Pass Details

Date: 11 February 2023
Orbit: 627 x 662 km, 48.4° (Epoch: 25 March)

Event Time Altitude Azimuth Distance (km) Brightness Sun altitude
Rises 03:16:30 0° 280° (W) 2,921 - -35.7°
Reaches altitude 10° 03:19:21 10° 263° (W) 2,015 - -35.3°
Maximum altitude 03:22:38 19° 217° (SW) 1,497 - -34.8°
Drops below altitude 10° 03:25:56 10° 172° (S) 2,022 - -34.3°
Sets 03:28:48 0° 155° (SSE) 2,935 - -33.8°
